Find Starlink 34887

NORAD ID: 65103 Int'l Des: 2025-167 Owner: SPXS Country: US Constellation: starlink operational
LEOCIRCULAR

Live Position

Loading 3D Globe...

About Starlink 34887

Description loading...

Upcoming Passes

Passes for default location (London). Set your location on the main map for personalized predictions.

Altitude History

Loading altitude history...

Two-Line Element Set

1 65103U 25167AB 26103.83995107 .00007134 00000-0 25276-3 0 9990
2 65103 53.1583 223.2321 0001183 95.4554 264.6582 15.30200041 38866
Epoch: Apr 13, 2026 • Age: 12 hours

Current Status

Altitude 481.7 km
Velocity 7.62 km/s
Sub-Earth Point -21.41°S, 127.41°W
Launch Date Aug 4, 2025
Age 0.6 years
Type internet

Technical Details

Classification Payload
Mass 575.00 kg
Dry Mass 530.00 kg
Total Mass 575.00 kg
Length 0.30 m
Diameter 4.10 m
Span 29.00 m
Shape Box + pan
Manufacturer SPXS
Bus Type Starlink V2MO
Phase Status In Orbit
Owner/State SPXS/US

Most Searched